Weather History for Marion, IN

Change the Weather History Date:

Friday, October 4, 2013

  Actual Average (KMIE) Record (KMIE)
Temperature  
Mean Temperature 74 °F 58 °F  
Max Temperature 81 °F 69 °F 87 °F (1967)
Min Temperature 66 °F 47 °F 28 °F (1989)
Degree Days  
Heating Degree Days 0 8  
Month to date heating degree days 31  
Since 1 July heating degree days 132  
Cooling Degree Days 8 1  
Month to date cooling degree days 4  
Year to date cooling degree days 943  
Growing Degree Days 24 (Base 50)    
Moisture  
Dew Point 64 °F    
Average Humidity 81    
Maximum Humidity 95    
Minimum Humidity 54    
Precipitation  
Precipitation 0.00 in 0.10 in 1.39 in (1973)
Month to date precipitation 0.41  
Year to date precipitation 31.28  
Sea Level Pressure  
Sea Level Pressure 30.03 in    
Wind  
Wind Speed 8 mph (SSW)    
Max Wind Speed 16 mph    
Max Gust Speed 20 mph    
Visibility 8 miles    
Events Rain    
T = Trace of Precipitation, MM = Missing Value Source: NWS Daily Summary

Daily Weather History Graph

Daily Weather History Graph

Search for Another Location

Airport:

Trip Planner

Search our weather history database for the weather conditions in past years. The results will help you decide how hot, cold, wet, or windy it might be!

Date:

Astronomy

Oct. 04, 2013 Rise Set
Actual Time 7:42 AM EDT 7:19 PM EDT
Civil Twilight 7:15 AM EDT 7:46 PM EDT
Nautical Twilight 6:43 AM EDT 8:18 PM EDT
Astronomical Twilight 6:11 AM EDT 8:50 PM EDT
Moon 7:17 AM EDT (10/4) 7:01 PM EDT (10/4)
Length of Visible Light 12h 31m
Length of Day
11h 37m
Waning Crescent, 0% of the Moon is Illuminated
Oct 4
Waning Crescent
Oct 4
New
Oct 11
First Quarter
Oct 18
Full
Oct 26
Last Quarter

Hourly Weather History & Observations

Time (EDT) Temp. Heat Index Dew Point Humidity Pressure Visibility Wind Dir Wind Speed Gust Speed Precip Events Conditions
12:35 AM 68.0 °F - 62.2 °F 82% 30.01 in 7.0 mi South 6.9 mph - N/A   Clear
12:55 AM 68.0 °F - 62.4 °F 82% 30.01 in 10.0 mi South 5.8 mph - N/A   Scattered Clouds
1:15 AM 68.5 °F - 62.8 °F 82% 30.00 in 10.0 mi South 10.4 mph - N/A   Scattered Clouds
1:35 AM 68.7 °F - 62.8 °F 81% 30.00 in 10.0 mi SSW 10.4 mph - N/A   Scattered Clouds
1:55 AM 68.4 °F - 62.8 °F 82% 30.01 in 10.0 mi SSW 11.5 mph - N/A   Scattered Clouds
2:15 AM 68.0 °F - 62.8 °F 83% 30.01 in 10.0 mi SSW 10.4 mph - N/A   Clear
2:35 AM 67.6 °F - 62.8 °F 84% 30.01 in 10.0 mi SSW 9.2 mph - N/A   Scattered Clouds
2:55 AM 68.0 °F - 63.3 °F 85% 30.01 in 7.0 mi SSW 10.4 mph - N/A   Mostly Cloudy
3:15 AM 68.0 °F - 63.3 °F 85% 30.01 in 10.0 mi SSW 10.4 mph - N/A   Mostly Cloudy
3:35 AM 67.8 °F - 63.5 °F 86% 30.01 in 10.0 mi SSW 10.4 mph - N/A   Mostly Cloudy
3:55 AM 67.6 °F - 63.7 °F 87% 30.02 in 7.0 mi SSW 9.2 mph - N/A   Mostly Cloudy
4:15 AM 67.1 °F - 64.2 °F 90% 30.02 in 5.0 mi SSW 8.1 mph - N/A Rain Light Rain
4:35 AM 67.1 °F - 64.6 °F 92% 30.02 in 7.0 mi SW 6.9 mph - N/A   Overcast
4:55 AM 66.9 °F - 64.8 °F 93% 30.01 in 7.0 mi SW 5.8 mph - N/A   Overcast
5:15 AM 66.7 °F - 64.8 °F 93% 30.02 in 7.0 mi SSW 4.6 mph - N/A   Overcast
5:35 AM 66.7 °F - 64.8 °F 93% 30.02 in 7.0 mi South 5.8 mph - N/A   Overcast
5:55 AM 66.7 °F - 64.8 °F 93% 30.03 in 7.0 mi South 5.8 mph - N/A   Overcast
6:15 AM 66.7 °F - 64.8 °F 93% 30.03 in 7.0 mi South 5.8 mph - N/A   Overcast
6:35 AM 66.4 °F - 64.6 °F 94% 30.03 in 7.0 mi South 3.5 mph - N/A   Overcast
6:55 AM 66.4 °F - 64.6 °F 94% 30.04 in 7.0 mi SSW 4.6 mph - N/A   Overcast
7:15 AM 66.6 °F - 64.8 °F 94% 30.04 in 7.0 mi South 4.6 mph - N/A   Overcast
7:35 AM 66.7 °F - 64.6 °F 93% 30.04 in 7.0 mi South 4.6 mph - N/A   Overcast
7:55 AM 66.6 °F - 64.6 °F 93% 30.05 in 5.0 mi South 5.8 mph - N/A   Mostly Cloudy
8:15 AM 66.4 °F - 64.8 °F 95% 30.05 in 4.0 mi South 5.8 mph - N/A   Clear
8:35 AM 66.9 °F - 65.3 °F 95% 30.05 in 7.0 mi SSW 8.1 mph - N/A   Scattered Clouds
8:55 AM 67.1 °F - 65.3 °F 94% 30.05 in 5.0 mi SSW 6.9 mph - N/A   Mostly Cloudy
9:15 AM 67.5 °F - 65.7 °F 94% 30.05 in 7.0 mi SSW 6.9 mph - N/A   Mostly Cloudy
9:35 AM 68.2 °F - 65.7 °F 92% 30.06 in 7.0 mi South 5.8 mph - N/A   Scattered Clouds
9:55 AM 68.7 °F - 66.0 °F 91% 30.06 in 7.0 mi SSW 5.8 mph - N/A   Mostly Cloudy
10:15 AM 69.3 °F - 66.2 °F 90% 30.06 in 7.0 mi SSW 5.8 mph - N/A   Scattered Clouds
10:35 AM 70.5 °F - 66.6 °F 87% 30.06 in 10.0 mi SSW 6.9 mph - N/A   Clear
10:55 AM 72.9 °F - 66.9 °F 82% 30.05 in 7.0 mi South 5.8 mph - N/A   Clear
11:15 AM 74.8 °F - 66.0 °F 74% 30.05 in 10.0 mi SW 11.5 mph - N/A   Clear
11:35 AM 76.6 °F - 65.7 °F 69% 30.05 in 7.0 mi SW 12.7 mph 17.3 mph N/A   Scattered Clouds
11:55 AM 78.4 °F - 65.3 °F 64% 30.05 in 7.0 mi WSW 11.5 mph - N/A   Scattered Clouds
12:15 PM 79.2 °F - 64.9 °F 62% 30.05 in 7.0 mi WSW 12.7 mph - N/A   Mostly Cloudy
12:35 PM 79.0 °F - 65.1 °F 62% 30.05 in 10.0 mi SW 12.7 mph 17.3 mph N/A   Overcast
12:55 PM 80.8 °F 82.5 °F 64.8 °F 58% 30.04 in 10.0 mi SW 13.8 mph 18.4 mph N/A   Mostly Cloudy
1:15 PM - - - N/A% 30.04 in 10.0 mi SW 16.1 mph 19.6 mph N/A   Scattered Clouds
1:35 PM - - - N/A% 30.04 in 7.0 mi SW 13.8 mph 19.6 mph N/A   Scattered Clouds
1:55 PM 81.1 °F 82.7 °F 64.2 °F 56% 30.03 in 10.0 mi SW 11.5 mph 16.1 mph N/A   Scattered Clouds
2:15 PM 81.0 °F 82.6 °F 64.2 °F 57% 30.03 in 10.0 mi SW 12.7 mph - N/A   Mostly Cloudy
2:35 PM 80.6 °F 82.0 °F 63.5 °F 56% 30.02 in 7.0 mi WSW 11.5 mph - N/A   Mostly Cloudy
2:55 PM - - - N/A% 30.01 in 7.0 mi SW 9.2 mph - N/A   Mostly Cloudy
3:15 PM - - - N/A% 30.01 in 10.0 mi SSW 8.1 mph - N/A   Mostly Cloudy
3:35 PM 81.7 °F 83.0 °F 63.7 °F 54% 30.01 in 10.0 mi SW 10.4 mph 17.3 mph N/A   Mostly Cloudy
3:55 PM - - - N/A% 30.01 in 7.0 mi SSW 13.8 mph 19.6 mph N/A   Mostly Cloudy
4:15 PM - - - N/A% 30.01 in 10.0 mi SSW 11.5 mph 17.3 mph N/A   Scattered Clouds
4:35 PM - - - N/A% 30.01 in 7.0 mi SSW 13.8 mph - N/A   Scattered Clouds
4:55 PM - - - N/A% 30.01 in 10.0 mi SSW 11.5 mph 17.3 mph N/A   Scattered Clouds
5:15 PM - - - N/A% 30.00 in 10.0 mi SSW 10.4 mph - N/A   Scattered Clouds
5:35 PM - - - N/A% 30.01 in 7.0 mi SW 11.5 mph - N/A   Scattered Clouds
5:55 PM - - - N/A% 30.01 in 7.0 mi SSW 15.0 mph 18.4 mph N/A   Clear
6:15 PM - - - N/A% 30.01 in 7.0 mi South 11.5 mph - N/A   Clear
6:35 PM 79.3 °F - 63.5 °F 58% 30.00 in 10.0 mi SW 10.4 mph - N/A   Clear
6:55 PM 77.7 °F - 63.7 °F 62% 30.01 in 7.0 mi SSW 8.1 mph - N/A   Clear
7:15 PM 76.6 °F - 63.7 °F 64% 30.01 in 10.0 mi SSW 5.8 mph - N/A   Clear
7:35 PM 75.4 °F - 63.9 °F 67% 30.02 in 7.0 mi South 3.5 mph - N/A   Clear
7:55 PM 73.9 °F - 63.7 °F 70% 30.02 in 10.0 mi South 5.8 mph - N/A   Clear
8:15 PM 72.5 °F - 63.9 °F 74% 30.02 in 10.0 mi South 5.8 mph - N/A   Clear
8:35 PM 72.1 °F - 63.9 °F 75% 30.03 in 10.0 mi South 5.8 mph - N/A   Clear
8:55 PM 71.4 °F - 63.9 °F 77% 30.03 in 10.0 mi South 5.8 mph - N/A   Clear
9:15 PM 71.6 °F - 64.0 °F 77% 30.03 in 7.0 mi South 3.5 mph - N/A   Clear
9:35 PM 71.1 °F - 63.9 °F 78% 30.03 in 10.0 mi SSE 3.5 mph - N/A   Clear
9:55 PM 70.0 °F - 63.7 °F 80% 30.04 in 10.0 mi South 4.6 mph - N/A   Scattered Clouds
10:15 PM 70.0 °F - 63.9 °F 81% 30.04 in 10.0 mi South 5.8 mph - N/A   Scattered Clouds
10:35 PM 70.2 °F - 64.4 °F 82% 30.04 in 7.0 mi South 4.6 mph - N/A   Scattered Clouds
10:55 PM 69.6 °F - 64.2 °F 83% 30.04 in 10.0 mi South 5.8 mph - N/A   Clear
11:15 PM 69.3 °F - 64.6 °F 85% 30.04 in 10.0 mi South 5.8 mph - N/A   Clear
11:35 PM 69.1 °F - 64.9 °F 87% 30.04 in 10.0 mi South 4.6 mph - N/A   Clear
11:55 PM 68.7 °F - 65.1 °F 88% 30.04 in 10.0 mi South 4.6 mph - N/A   Clear